Regional Weather Roundup
Issued by NWS

Home | Current Version | Previous Version | Text Only | Print | Product List | Glossary On
Versions: 1 2 3 4 5 6 7 8 9 10 11 12 13 14 15 16 17 18 19 20 21 22 23 24 25 26 27 28 29 30 31 32 33 34 35 36 37 38 39 40 41 42 43 44 45 46 47 48 49 50
512
ASHW40 PHFO 281043
RWRHI

WEATHER ROUNDUP FOR HAWAII
NATIONAL WEATHER SERVICE HONOLULU HI
1200 AM HST THU JUL 28 2016

THIS IS AN AUTOMATED REPORT THAT HAS NOT BEEN QUALITY CONTROLLED.

NOTE..."FAIR" INDICATES FEW OR NO CLOUDS BELOW 12,000 FEET WITH NO
SIGNIFICANT WEATHER AND/OR OBSTRUCTIONS TO VISIBILITY.

* - THESE SITES REPORT LIMITED FIELDS

HIZ001>004-281100-
KAUAI-NIIHAU-

CITY           SKY/WX    TMP DP  RH WIND       PRES   REMARKS
LIHUE APT      CLOUDY    79  70  74 NE15      30.07F
PORT ALLEN*      N/A     79 N/A N/A NE18G24     N/A
POIPU*           N/A     79 N/A N/A NE12G22     N/A
PRINCEVILLE*     N/A     77 N/A N/A SE7G14      N/A
KOKOLE POINT*  NOT AVBL
MOLOAA DAIRY*    N/A     77  70  78 E7G13       N/A
WAIMEA HTS*      N/A     75  68  78 NW3         N/A
PUU OPAE*        N/A     66  64  94 CALM        N/A
PUU LUA*       NOT AVBL
MAKAHA RIDGE*    N/A     70  66  88 CALM        N/A
$$

HIZ005>011-281100-
OAHU-

CITY           SKY/WX    TMP DP  RH WIND       PRES   REMARKS
HONOLULU       PTCLDY    79  66  64 E15       30.02F
KALAELOA       PTCLDY    79  66  64 NE7       30.03F
KANEOHE MCB    PTCLDY    79  69  71 E13G21    30.02F
WHEELER FIELD  MOCLDY    76  66  71 SE6       30.05F
BELLOWS*         N/A    N/A N/A N/A E22         N/A
KAHUKU*          N/A    N/A N/A N/A VRB14G24    N/A
WHEELER*         N/A    N/A N/A N/A SE5G13      N/A
WAIANAE HARBOR   N/A    N/A N/A N/A NE5G17      N/A
DILLINGHAM*      N/A     91  79  66 MISG        N/A  HX 107
KAHUKU TRN*      N/A     75  70  83 W14G26      N/A
KAWAILOA*        N/A     72  64  78 S3G18       N/A
KII*             N/A     79  70  73 E22G28      N/A
MAKUA RANGE*     N/A     90  77  66 W5G18       N/A  HX 102
OAHU FOREST NW   N/A     72  64  78 E15G47      N/A
SCHOFIELD BRK*   N/A     75  66  73 MISG        N/A
SCHOFIELD S*   NOT AVBL
WAIANAE VLY*     N/A     90  79  70 S6G17       N/A  HX 105
KUAOKALA*        N/A     73  66  78 NE7G20      N/A
HONOULIUULI*   NOT AVBL
MOKUOLOE IS*   NOT AVBL
PALEHUA*         N/A     66  63  88 NE12G31     N/A
WAIAWA PHB*    NOT AVBL
$$

HIZ012>013-281100-
MOLOKAI-

CITY           SKY/WX    TMP DP  RH WIND       PRES   REMARKS
MOLOKAI AIRPT  MOCLDY    79  69  71 NE20G30   30.03F
KALAUPAPA      NOT AVBL
MAKAPULAPAI*     N/A     79  70  73 E23G35      N/A
MOLOKAI 1*       N/A     68  61  77 SW3         N/A
PUU ALII*        N/A     61  61 100 N3G12       N/A
$$

HIZ016-281100-
KAHOOLAWE-

CITY           SKY/WX    TMP DP  RH WIND       PRES   REMARKS
KAHOOLAWE*     NOT AVBL
HAKIOAWA*        N/A     73  65  77 MISG      30.43F
HONOKANAIA*      N/A    N/A N/A N/A MISG        N/A
KANELOA*         N/A     75  64  69 NE20G36   30.07F
KEALIALALO*    NOT AVBL
LUA MAKIKA*    NOT AVBL
$$

HIZ014>015-281100-
LANAI-

CITY           SKY/WX    TMP DP  RH WIND       PRES   REMARKS
LANAI CITY     FAIR      72  66  81 E7        30.07S
LANAI 1*       NOT AVBL
$$

HIZ017>028-281100-
MAUI-

CITY           SKY/WX    TMP DP  RH WIND       PRES   REMARKS
KAHULUI        CLEAR     78  69  73 NE18G24   30.02F
KAPALUA-W MAUI NOT AVBL
HANA AIRPORT     N/A     77  72  83 E5        30.06F
HANA*            N/A     79 N/A N/A E6G12       N/A
HALEAKALA SUMM   N/A     46  30  53 E31G51      N/A
MAALAEA BAY*     N/A     79 N/A N/A N20G31      N/A
HALEAKALA*     NOT AVBL
KAUPO GAP*       N/A     79  43  27 VRB16G37    N/A
KULA 1*          N/A     64  34  33 E6G16       N/A
$$

HIZ023>026-281100-
BIG ISLAND OF HAWAII COAST AND LOWER SLOPES-

CITY           SKY/WX    TMP DP  RH WIND       PRES   REMARKS
KAILUA KONA    PTCLDY    80  71  74 NE3       29.95F
HILO           CLEAR     75  70  84 W6        30.04F
HONOKAA*         N/A     72 N/A N/A VRB1        N/A
KAWAIHAE MWT*    N/A     82 N/A N/A NW3         N/A
KAWAIHAE*        N/A     81 N/A N/A E3        29.96S
SOUTH POINT*     N/A     73 N/A N/A N25G37      N/A
UPOLU AIRPORT*   N/A    N/A N/A N/A E20G31      N/A
KAMUELA*       NOT AVBL
HAKALAU*         N/A    N/A N/A N/A SW3G9       N/A
KALOKO-HONOKO*   N/A     79  68  69 N2        29.94F
PALI 2*          N/A     66  59  77 S18G32      N/A
KEALAKOMO*       N/A     79  66  65 NE18G28     N/A
KAUPULEHU*       N/A     70  64  83 SE6         N/A
KAPAPALA*        N/A     65  63  92 NW3         N/A
LOWER KAHUKU*    N/A    N/A N/A N/A N3G12       N/A
PUHE CS*         N/A     81  66  61 W2G9        N/A
PUHO CS*       NOT AVBL
PTA KEAMUKU*     N/A    N/A N/A N/A CALM        N/A
WAIKOLOA*        N/A     73  59  60 E12G22      N/A
$$

HIZ027>028-281100-
BIG ISLAND OF HAWAII INTERIOR AND SUMMMITS-

CITY           SKY/WX    TMP DP  RH WIND       PRES   REMARKS
BRADSHAW FIELD CLEAR     58  44  58 S7G18     30.33F
MK VISITOR CEN   N/A     50  12  22 NE15        N/A
MAUNA KEA*       N/A     30  12  47 SE28        N/A  WCI  16
MAUNA LOA*       N/A    N/A N/A N/A MISG        N/A
MAUNA LOA 1*   NOT AVBL
PTA KIPUKA*      N/A     82  32  16 E13G21      N/A
PTA RANGE 17*    N/A    N/A N/A N/A SE17G26     N/A
PTA WEST*      NOT AVBL
NENE CABIN*      N/A    N/A N/A N/A NE6G13      N/A
AHUMOA*        NOT AVBL
PTA PORTABLE*  NOT AVBL
PUU MALI*        N/A     64   9  11 SE18G31     N/A
$$

HIC003-281100-
NORTHWEST ISLANDS-

CITY           SKY/WX    TMP DP  RH WIND       PRES   REMARKS
MIDWAY ISLAND  CLEAR     75  70  83 E13       30.12R
MIDWAY NOS*      N/A     79 N/A N/A MISG      30.10S
FRENCH FRIGATE NOT AVBL
$$

PHZ110>124-180-281100-
BUOY REPORTS

STATION/POSITION TIME  TEMP    WIND        PRES    WAVE   SWELL
                       AIR SEA DIR/SP/G            HT/PER HT/DIR
                 (UTC) (F)     (DEG/KT/KT) (MB)    (FT/S) (FT/D)
BUOY 51001       1000   81 82  110/ 10/ 14 1016.0S
BUOY 51101       0950   79 79   90/ 16/ 19 1018.4F   5/ 6   2/120
BUOY 51100       NOT AVBL
BUOY 51002       0950   82 82   80/ 16/ 17 1014.7R   6/ 8   5
BUOY 51003       0950   80 82   70/ 14/ 17 1015.0R   7/ 8   5/120
BUOY 51004       0950   79 81   80/ 17/ 23 1014.5F   7/ 8   5/110
BARBERS PT BUOY  NOT AVBL
WAIMEA BAY BUOY  1004      80                N/A     4/ 7
KAILUA BAY BUOY  1011      80                N/A     8/ 8   2/130
LANAI BUOY       1015      81                N/A     3/13   2/190
BARBERS PT 2     NOT AVBL
PAUWELA MAUI     1009      80                N/A     6/ 8
HILO             1012      80                N/A     6/ 8   2/ 90
KANEOHE BAY BUOY 1006      79                N/A     6/ 7
HANALEI KAUAI    NOT AVBL
KAHULUI HARBOR   1000   79 81   30/ 16/ 20 1016.7F
HONOLULU HARBOR  1000   80 80   60/  4/  8 1017.1F
KILO NALU        NOT AVBL
HILO HARBOR      1000   75 79  250/  3/  4 1016.8F
MOKUOLOE         0900   80 84   80/ 12/ 19 1017.8S
NAWILIWILI       1000      81                N/A
WHOTS BUOY       NOT AVBL
BUOY 51028       NOT AVBL
$$

......................KEY........................................
  SKY/WX - SKY CONDITIONS/PRESENT WEATHER
  TMP    - TEMPERATURE IN FAHRENHEIT
  DWPT   - DEWPOINT IN FAHRENHEIT
  RH     - RELATIVE HUMIDITY IN PERCENT
  WIND   - DIRECTION AND SPEED /MPH FOR ISLANDS...KTS FOR BUOYS/
  PRES   - MEAN SEA LEVEL PRESSURE IN INCHES OF HG
  VSB    - VISIBILITY IN MILES
  HX     - HEAT INDEX
  WCI    - WIND CHILL INDEX
  VRB    - VARIABLE WIND DIRECTION
  N/A    - NOT AVAILABLE




USA.gov is the U.S. government's official web portal to all federal, state and local government web resources and services.